OBJECT X, 43897

Orbit data source: Space-Track

You're viewing an Uncataloged Satellite

Recently launched and/or uncataloged satellites may have evolving metadata. Metadata may include but not limited to: Owner, Maufacturer, Bus, Motor, and Mission.

OBJECT X, 43897 is a satellite in SSO that was launched on Thu, 27 Dec 2018 UTC via a SOYUZ-2-1A launch vehicle from the Vostochny Cosmodrome (VOSTO). Unknown objects in Earth's orbit typically refer to objects detected orbiting the Earth but have not yet been identified or cataloged. These objects could be anything from previously untracked satellites, spent rocket stages, debris from satellite collisions, or even natural meteoroids temporarily captured by Earth's gravity.

Loading next visibility...
Identifier
43897, 2018-111X
Orbit
SSO
Country
Flag of TBDTBD
Related business
None
Manufacturer
Unknown
Mission
Civil Technology
Bus & Motor
Unknown
Mass
Unknown
Launch date (UTC)
2018-12-27 (7 years ago)
Launch vehicle
SOYUZ-2-1A
Launch site
Vostochny Cosmodrome (VOSTO)
Object type
Unknown
Shape & HBR
Box, 0.1 m
Radar Cross Section
0.080 m², Medium (>0.1 m² and < 1m²)

Expand to show TLE details & history
Last TLE update: 5 hours ago

TLE from 5 hours ago
0 OBJECT X
1 43897U 18111X   25308.24364292  .00063243  00000-0  44625-3 0  9995
2 43897  96.9844 173.8765 0004385 273.4477  86.6287 15.73864057383573
Epoch: 2025-11-04T05:50Z
TLE epoch observation values (Epoch: 2025-11-04T05:50:50.748Z)
Latitude
0.00001°
Longitude
42.43159°
Altitude
350.868 km
Speed
7.699 km/s
True Right ascension
11h 35m 30s
True Declination
0° 00' 00"
Sunlit
Object was in daylight at epoch
Visualization orbit readout
Latitude
Unknown
Longitude
Unknown
Altitude
Unknown
Speed
Unknown
Apparent Right ascension
Unknown
Apparent Declination
Unknown
Sunlit
N/A
Visualization observer readout
Local Sidereal Time
06:55:08
Azimuth
Unknown
Elevation
Unknown
Doppler factor
Unknown
Orbital elements
Apogee altitude
347.69 km
Perigee altitude
341.794 km
Semi-major axis
6,722.879 km
Eccentricity
0.00044
Inclination
96.9844°
RAAN
173.8765°
Arg. of periapsis
273.4477°
True anomaly
86.67886°
Mean anomaly
86.6287°
Eccentric anomaly
86.65378°
Mean motion
3.93741 °/min
Orbital period
91.43 mins
BSTAR
0.00044625
Loading maneuver chart data...
Computing Atmospheric mass density...
Loading historical data...
Loading historical data...
Loading historical data...
Loading historical data...
Loading historical data...
Loading historical data...
Loading historical data...

Documentation

Showing up to 5 results
|